Aeroporto :
LOGIN :

Iscrizione | Disclaimer

   EN    FR    IT 

 










Sommario :    VFR   VFR Marginale   IFR   IFR Intensivo   IFR Molto Intensivo
Visibilità : 
Base nubi : 
>= 8 km
>= 3000ft
5 / 8 km
1000 / 3000 ft
1500m / 5 km
500 / 1000 ft
800 / 1500m
200 / 500 ft
< 800m
< 200 ft
Simboli :   Temporali  Nebbia  Neve Forte  Precipitazioni Forti  Vento > 20 kt
SIGMETs :   Varie  Temporali  Ghiacco  Turbolenza  Onda orograficha  Ceneri Vulcaniche






- Altitudine del aeroporto : 9 ft
- Codice IATA : MIR


DTMB - Habib Bourguliba Int. Monastir

ULTIMO METAR :
  • 030130Z 24002KT 9999 FEW046 19/16 Q1013 NOSIG

METARs OBSOLETI :
  • 030100Z 23004KT 9999 FEW046 19/16 Q1013 NOSIG
  • 030030Z 26003KT 9999 FEW046 19/16 Q1013 NOSIG
  • 030000Z 25005KT 9999 FEW046 19/16 Q1013 NOSIG
  • 022330Z 26005KT 9999 FEW046 19/16 Q1014 NOSIG
  • 022300Z 23005KT 9999 FEW046 20/16 Q1014 NOSIG

TAF TAF DTMB
Valido dal 03 a 00 ore il 04 a 00 ore UTC


022300Z 0300/0324 26005KT 9999 FEW046
BECMG 0315/0317 11018KT



MetMap, La meteo Aeronautica in un colpo d'occhio ! - Copyright ORBIFLY Dicembre 2007 - Disclaimer

ORBIFLY MET'MAP TEAM :

Programmazione e sviluppo : Alexandra Zaïnal
Concezione : Baudouin d'Aumeries
Aiuto per la programmazione : Marc-Olivier Méhu
Supporto tecnico e logistico : Manuel Goepfert
Aiuto per la traduzione : Arnaldo La Scala

Contatto : metmap@orbifly.com




FONTI E CREDITI :

   NOAA